Weather Service Report


726 
ASUS43 KMPX 221010
RWRMN 
WEATHER ROUNDUP FOR MINNESOTA
NATIONAL WEATHER SERVICE TWIN CITIES/CHANHASSEN MN
400 AM CST WED NOV 22 2017


NOTE: "FAIR" INDICATES FEW OR NO CLOUDS BELOW 12,000 FEET WITH NO
SIGNIFICANT WEATHER AND/OR OBSTRUCTIONS TO VISIBILITY. N/A MEANS
CURRENT SKY AND/OR WEATHER CONDITIONS ARE NOT AVAILABLE.

MNZ060>063-068>070-221100-
   Twin Cities Metro   
  
CITY           SKY/WX    TMP DP  RH WIND       PRES   REMARKS
TWIN CITIES    CLOUDY    15  10  80 W5        30.34F WCI   8          
ST PAUL        PTCLDY    16   9  74 CALM      30.36F                  
CRYSTAL        CLOUDY    14   7  73 W7        30.33F WCI   4          
BLAINE         CLEAR     16  10  79 CALM      30.32F                  
LAKEVILLE      CLOUDY    10   9  92 CALM      30.35S                  
EDEN PRAIRIE   CLOUDY    16   9  74 W3        30.34F                  
SOUTH ST PAUL  CLOUDY    16  10  77 CALM      30.35F                  
LAKE ELMO      FAIR      14  12  92 CALM      30.34F                  
$$
MNZ001>005-007-008-013>017-022>024-027-028-221100-
   Northwest Minnesota   
  
CITY           SKY/WX    TMP DP  RH WIND       PRES   REMARKS
BEMIDJI        CLOUDY     8   5  89 SW6       30.21F WCI  -2          
HALLOCK        CLOUDY     3   0  85 S7        30.19F WCI  -9          
ROSEAU         CLOUDY    10   5  79 SW5       30.18F WCI   2          
WARROAD        CLOUDY     9   3  78 SW5       30.18F WCI   0          
THIEF RVR FALL CLOUDY     8   5  87 S9        30.21F WCI  -5          
CROOKSTON      CLOUDY     9   7  92 SW7       30.25F WCI  -3          
FOSSTON        CLOUDY     7   3  85 S6        30.23S WCI  -3          
DETROIT LAKES  CLOUDY    10   9  92 SW5       30.24F WCI   2          
MOORHEAD       CLOUDY     7   1  78 CALM      30.27F                  
PARK RAPIDS    CLOUDY     8   4  83 S3        30.22F                  
MAHNOMEN       FAIR       8   4  87 S7        30.23F WCI  -4          
$$
MNZ006-009>011-018-025>026-221100-
   North Central Minnesota   
  
CITY           SKY/WX    TMP DP  RH WIND       PRES   REMARKS
BAUDETTE       CLOUDY     5   2  87 S6        30.18F WCI  -6          
FLAG ISLAND    CLOUDY     7   5  92 SW10      30.16F WCI  -8          
INTL FALLS       N/A      3  -1  83 SW3       30.20F                  
WASKISH        CLOUDY    10   9  92 SW3       30.21F                  
BIG FORK       CLOUDY     1  -2  85 CALM      30.21F                  
LONGVILLE      CLOUDY     7   5  92 CALM      30.24F                  
GRAND RAPIDS   FLURRIES   8   6  92 CALM      30.25F                  
CRANE LAKE     CLOUDY     9   7  92 CALM      30.24S                  
ORR            CLOUDY     5   1  85 CALM      30.19S                  
COOK           CLOUDY     3   1  92 CALM      30.21F                  
WALKER         FAIR      10   7  88 S3        30.22F                  
$$
MNZ012-019>021-037-221100-
   Northeast Minnesota   
  
CITY           SKY/WX    TMP DP  RH WIND       PRES   REMARKS
DULUTH         CLOUDY    10   8  92 W6        30.22F WCI   0          
ELY            FLURRIES  10   9  92 SW5       30.19F WCI   2          
HIBBING        CLOUDY     7   4  87 S5        30.22S WCI  -2          
EVELETH        CLOUDY     5   0  78 SW3       30.22F                  
DULUTH HARBOR  CLOUDY    19  12  73 W5        30.30F WCI  13          
TWO HARBORS    CLOUDY    14   9  79 S5        30.22F WCI   6          
SILVER BAY     CLOUDY     9   7  92 CALM      30.21F                  
GRAND MARAIS     N/A     19  12  74 CALM      30.23F                  
G MARAIS ARPRT PTCLDY     9   3  78 CALM      30.13F                  
$$
MNZ029>031-032-039>041-046>048-054>057-064-221100-
   West Central Minnesota   
  
CITY           SKY/WX    TMP DP  RH WIND       PRES   REMARKS
FERGUS FALLS   CLOUDY     9   5  85 CALM      30.31F                  
WHEATON        CLOUDY     9   5  85 S7        30.31F WCI  -3          
MORRIS         CLOUDY     9   5  85 S5        30.29F WCI   0          
ALEXANDRIA     CLOUDY    11   7  84 S5        30.27F WCI   3          
ELBOW LAKE     FAIR       6   4  91 S8        30.29F WCI  -7          
WADENA         CLOUDY     7   3  85 CALM      30.24F                  
GLENWOOD       CLOUDY     9   7  92 S5        30.28F WCI   0          
APPLETON       CLOUDY    12   9  85 S3        30.32F                  
BENSON         CLOUDY     9   5  85 SW3       30.32F                  
ORTONVILLE     CLOUDY     9   5  85 MISG        N/A                   
MADISON        CLOUDY    10   9  92 S3        30.33F                  
WILLMAR        FAIR      10   9  92 SW3       30.32F                  
$$
MNZ033>034-036-042>043-049>051-058-059-221100-
   Central Minnesota     
  
CITY           SKY/WX    TMP DP  RH WIND       PRES   REMARKS
ST CLOUD       CLOUDY    11   8  88 CALM      30.31F                  
SAUK CENTRE    FAIR       9   7  92 S3        30.29F                  
PAYNESVILLE    CLOUDY    12  10  92 CALM      30.30F                  
AITKIN         CLEAR      9   7  92 SW3       30.25F                  
PINE RIVER     CLOUDY     7   3  85 CALM      30.28S                  
BRAINERD       CLEAR     11   7  84 SW3       30.27F                  
STAPLES        CLOUDY     9   7  92 CALM      30.26F                  
LITTLE FALLS   CLOUDY     9   5  85 CALM      30.29F                  
LITCHFIELD     CLOUDY    16  12  86 CALM      30.32F                  
BUFFALO        CLOUDY    15  11  83 CALM      30.34F                  
MAPLE LAKE     CLOUDY    14  11  89 CALM      30.34F                  
HUTCHINSON     CLOUDY    12  10  92 CALM      30.34F                  
$$
MNZ037-044-045-052-053-221100-
   East Central Minnesota   
  
CITY           SKY/WX    TMP DP  RH WIND       PRES   REMARKS
PRINCETON      CLOUDY    10   7  85 CALM      30.30F                  
MORA           CLOUDY    12   9  85 CALM      30.30F                  
CAMBRIDGE      CLOUDY    14   7  73 CALM      30.32F                  
RUSH CITY      CLOUDY    10   9  92 CALM      30.31F                  
MOOSE LAKE     CLOUDY    12   9  85 CALM      30.26F                  
HINCKLEY       FAIR      14  12  92 CALM      30.28F                  
CLOQUET        CLOUDY    12   9  85 CALM      30.24F                  
MCGREGOR       CLOUDY    12  10  92 CALM      30.26F                  
$$
MNZ071>073-080-081-089-090-097-098-221100-
   Southwest Minnesota   
  
CITY           SKY/WX    TMP DP  RH WIND       PRES   REMARKS
MONTEVIDEO     CLOUDY    10   7  85 SW3       30.33F                  
GRANITE FALLS  CLOUDY     9   6  87 S3        30.35F                  
CANBY          CLOUDY    13  10  85 SW3       30.33F                  
MARSHALL       CLOUDY    11   6  81 S5        30.34F WCI   3          
REDWOOD FALLS  CLOUDY    13   6  74 W5        30.35F WCI   5          
OLIVIA         CLOUDY    12   9  85 CALM      30.33F                  
PIPESTONE      CLOUDY    10   5  79 NE5       30.29F WCI   2          
WINDOM         CLOUDY     9  -2  61 W3        30.34S                  
WORTHINGTON    CLOUDY    11   7  84 SW3       30.33F                  
JACKSON        CLOUDY    12   7  79 CALM      30.34S                  
SLAYTON        CLOUDY    10   0  64 CALM      30.31F                  
$$
MNZ065>067-074>077-082>085-091>093-221100-
   South Central Minnesota  
  
CITY           SKY/WX    TMP DP  RH WIND       PRES   REMARKS
MANKATO        CLOUDY    13   9  84 CALM      30.36F                  
NEW ULM        CLOUDY     9   5  85 CALM      30.35F                  
ST JAMES       CLOUDY    12   9  85 CALM      30.37S                  
FAIRMONT       CLOUDY    14   9  80 NW6       30.36F WCI   5          
GLENCOE        CLOUDY    15  11  87 CALM      30.34F                  
FARIBAULT      CLOUDY    14  10  85 W3        30.35S                  
OWATONNA       CLOUDY    10   9  92 W3        30.34R                  
WASECA         CLOUDY    14  10  85 CALM      30.36F                  
ALBERT LEA     CLOUDY    14   9  79 CALM      30.34R                  
$$
MNZ078>079-086>088-094>096-221100-
   Southeast Minnesota   
  
CITY           SKY/WX    TMP DP  RH WIND       PRES   REMARKS
ROCHESTER      CLOUDY    13  10  88 NW5       30.32S WCI   5          
RED WING       CLOUDY    14   9  79 N3        30.35S                  
STANTON        CLEAR     14  10  82 CALM      30.34F                  
DODGE CENTER   CLOUDY    12  10  92 W6        30.32S WCI   3          
WINONA         CLOUDY    19  12  73 NW8       30.37S WCI   9          
AUSTIN         CLOUDY    14  10  85 NW6       30.32F WCI   5          
PRESTON          N/A     13  10  85 NW6       30.32F WCI   4          
$$
ABBREVIATIONS USED IN REMARKS
   TC - TEMPERATURES IN CELSIUS
  WCI - WIND CHILL INDEX
   HX - HEAT INDEX
  VSB - VISIBILITY 
$$
  

Return to Home page


Western Regional Climate Center, wrcc@dri.edu